WetterOnline ( http://www.wetteronline.de )

Wetter aktuell Bad Kissingen

Aktuelles Wetter: Bad Kissingen (266m)

6-stündlich | Neueste Meldungen
Ortszeit Temperatur Wetter
Mi, 17.10. 14:00 20.8° C wolkenlos
Mi, 17.10. 8:00 6.2° C Nebel
Mi, 17.10. 2:00 9.4° C wolkenlos
Di, 16.10. 20:00 15.9° C wolkenlos
Di, 16.10. 14:00 21.1° C wolkig
Di, 16.10. 8:00 5.6° C bedeckt
Di, 16.10. 2:00 8.5° C wolkenlos
Mo, 15.10. 20:00 15.8° C wolkenlos
Ortszeit Temperatur Wetter
Mi, 17.10. 19:30 16.8° C wolkig
Mi, 17.10. 19:20 16.8° C wolkig
Mi, 17.10. 19:10 17.5° C wolkig
Mi, 17.10. 19:00 17.3° C wolkig
Mi, 17.10. 18:50 17.3° C wolkig
Mi, 17.10. 18:40 17.7° C wolkig
Mi, 17.10. 18:30 18.0° C leicht bewölkt
Mi, 17.10. 18:00 19.6° C wolkenlos
Mi, 17.10. 17:30 21.8° C wolkenlos
Mi, 17.10. 17:00 22.0° C wolkenlos
Mi, 17.10. 16:30 21.8° C leicht bewölkt
Ortszeit Relative Feuchte Sichtweite
Mi, 17.10. 14:00 50% 24 km
Mi, 17.10. 8:00 98% 100 m
Mi, 17.10. 2:00 93% 11 km
Di, 16.10. 20:00 68% 45 km
Di, 16.10. 14:00 43% 29 km
Di, 16.10. 8:00 95% 11 km
Di, 16.10. 2:00 85% 30 km
Mo, 15.10. 20:00 60% 45 km
Ortszeit Relative Feuchte Sichtweite
Mi, 17.10. 19:30 68% 30 km
Mi, 17.10. 19:20 68% -
Mi, 17.10. 19:10 63% -
Mi, 17.10. 19:00 65% 23 km
Mi, 17.10. 18:50 65% -
Mi, 17.10. 18:40 64% -
Mi, 17.10. 18:30 63% 30 km
Mi, 17.10. 18:00 55% 24 km
Mi, 17.10. 17:30 49% 45 km
Mi, 17.10. 17:00 46% 40 km
Mi, 17.10. 16:30 46% 40 km
Ortszeit Niederschlagsmenge Niederschlagsart
Mi, 17.10. 14:00 0.0 l/m2 in 6 Std. -
Mi, 17.10. 8:00 0.0 l/m2 in 12 Std. -
Mi, 17.10. 2:00 0.0 l/m2 in 6 Std. -
Di, 16.10. 20:00 0.0 l/m2 in 12 Std. -
Di, 16.10. 14:00 0.0 l/m2 in 6 Std. -
Di, 16.10. 8:00 0.0 l/m2 in 12 Std. -
Di, 16.10. 2:00 0.0 l/m2 in 6 Std. -
Mo, 15.10. 20:00 0.0 l/m2 in 12 Std. -
Ortszeit Niederschlagsmenge Niederschlagsart
Mi, 17.10. 19:30 0.0 l/m2 in 1 Std. -
Mi, 17.10. 19:20 keine Meldung -
Mi, 17.10. 19:10 keine Meldung -
Mi, 17.10. 19:00 0.0 l/m2 in 1 Std. -
Mi, 17.10. 18:50 keine Meldung -
Mi, 17.10. 18:40 keine Meldung -
Mi, 17.10. 18:30 0.0 l/m2 in 1 Std. -
Mi, 17.10. 18:00 0.0 l/m2 in 1 Std. -
Mi, 17.10. 17:30 0.0 l/m2 in 1 Std. -
Mi, 17.10. 17:00 0.0 l/m2 in 1 Std. -
Mi, 17.10. 16:30 0.0 l/m2 in 1 Std. -
Ortszeit Stärke Spitze Richtung
km/h Bft. km/h Grad Sektor
Mi, 17.10. 14:00 4 1 11 150° SO
Mi, 17.10. 8:00 0 0 7 - -
Mi, 17.10. 2:00 6 1 11 10° N
Di, 16.10. 20:00 7 2 14 20° N
Di, 16.10. 14:00 6 1 9 240° SW
Di, 16.10. 8:00 6 1 11 330° NW
Di, 16.10. 2:00 9 2 11 340° N
Mo, 15.10. 20:00 6 1 15 30° NO
Ortszeit Stärke Spitze Richtung
km/h Bft. km/h Grad Sektor
Mi, 17.10. 19:30 0 0 4 - -
Mi, 17.10. 19:20 2 1 - 10° N
Mi, 17.10. 19:10 2 1 - 40° NO
Mi, 17.10. 19:00 4 1 4 290° W
Mi, 17.10. 18:50 4 1 - 290° W
Mi, 17.10. 18:40 4 1 - 30° NO
Mi, 17.10. 18:30 2 1 4 80° O
Mi, 17.10. 18:00 4 1 7 250° W
Mi, 17.10. 17:30 0 0 7 - -
Mi, 17.10. 17:00 2 1 7 110° O
Mi, 17.10. 16:30 4 1 7 90° O
Ortszeit Untergrenze Bedeckung Gattung
total tief tief mittel hoch
Mi, 17.10. 14:00 3000 m 0/8 0/8 - - -
Mi, 17.10. 8:00 <30 m 8/8 8/8 - - -
Mi, 17.10. 2:00 - 0/8 0/8 - - -
Di, 16.10. 20:00 - 0/8 0/8 - - -
Di, 16.10. 14:00 3900 m 8/8 8/8 - - -
Di, 16.10. 8:00 5400 m 8/8 8/8 - - -
Di, 16.10. 2:00 - 0/8 0/8 - - -
Mo, 15.10. 20:00 - 0/8 0/8 - - -
Ortszeit Bedeckungsgrad in Achtel und Wolkenuntergrenze
Mi, 17.10. 19:30 8(8700m) 8(9000m)
Mi, 17.10. 19:20 8(8700m) 8(9000m)
Mi, 17.10. 19:10 8(8700m) 8(9000m)
Mi, 17.10. 19:00 8(8400m) 8(9000m)
Mi, 17.10. 18:50 8(8400m) 8(9000m)
Mi, 17.10. 18:40 8(8400m) 8(9000m)
Mi, 17.10. 18:30 5(8400m) 6(9000m)
Mi, 17.10. 18:00 keine Wolken
Mi, 17.10. 17:30 keine Wolken
Mi, 17.10. 17:00 keine Wolken
Mi, 17.10. 16:30 3(9000m)
Ortszeit Luftdruck NN (hPa) Tendenz (hPa in 3 Std.)
Mi, 17.10. 14:00 1018 - 1,2
Mi, 17.10. 8:00 1021 + 0,5
Mi, 17.10. 2:00 1021 - 0,3
Di, 16.10. 20:00 1020 + 0,9
Di, 16.10. 14:00 1018 - 0,7
Di, 16.10. 8:00 1020 + 0,8
Di, 16.10. 2:00 1018 + 0,9
Mo, 15.10. 20:00 1016 + 1,1
Ortszeit Luftdruck NN (hPa) Tendenz (hPa in 3 Std.)
Mi, 17.10. 19:30 1019 + 0,6
Mi, 17.10. 19:20 1019 keine Meldung
Mi, 17.10. 19:10 1018 keine Meldung
Mi, 17.10. 19:00 1018 + 0,3
Mi, 17.10. 18:50 1018 keine Meldung
Mi, 17.10. 18:40 1018 keine Meldung
Mi, 17.10. 18:30 1018 - 0,2
Mi, 17.10. 18:00 1018 - 0,4
Mi, 17.10. 17:30 1017 - 0,6
Mi, 17.10. 17:00 1017 - 0,9
Mi, 17.10. 16:30 1017 - 1,1
Ortszeit Schneehöhe (cm)
Mi, 17.10. 14:00 0
Mi, 17.10. 8:00 0
Mi, 17.10. 2:00 0
Di, 16.10. 20:00 0
Di, 16.10. 14:00 0
Di, 16.10. 8:00 0
Di, 16.10. 2:00 0
Mo, 15.10. 20:00 0
Ortszeit Schneehöhe (cm)
Mi, 17.10. 19:30 0
Mi, 17.10. 19:20 0
Mi, 17.10. 19:10 0
Mi, 17.10. 19:00 0
Mi, 17.10. 18:50 0
Mi, 17.10. 18:40 0
Mi, 17.10. 18:30 0
Mi, 17.10. 18:00 0
Mi, 17.10. 17:30 0
Mi, 17.10. 17:00 0
Mi, 17.10. 16:30 0
Link zu dieser Seite / Seite empfehlen

Das Wetter in ...